Location: Ipswich
(52.0579°N, 1.1528°E)
Time: 21:42:02
(UTC+01:00)

ISS - Pass Details

Date: 02 May 2026
Orbit: 414 x 424 km, 51.6° (Epoch: 15 May)

Event Time Altitude Azimuth Distance (km) Brightness Sun altitude
Exits shadow 01:30:13 14° 89° (E) 1,262 -1.2 -22.1°
Drops below altitude 10° 01:30:50 10° 85° (E) 1,500 -0.8 -22.1°
Sets 01:33:01 0° 78° (ENE) 2,368 0.4 -22.0°
